Location: Bégole
(43.1574°N, 0.3291°E)
Time: 02:42:59
(UTC+00:00)

deb Delta 89 - Pass Details

Date: 28 February 2024
Orbit: 714 x 2021 km, 97.5° (Epoch: 13 April)

Event Time Altitude Azimuth Distance (km) Brightness Sun altitude
Rises 04:49:55 0° 7° (N) 5,473 ? -20.4°
Reaches altitude 10° 04:54:08 10° 354° (N) 4,482 ? -19.6°
Maximum altitude 05:01:53 23° 311° (NW) 3,466 ? -18.2°
Enters shadow 05:05:16 19° 287° (WNW) 3,588 ? -17.6°
